This demonstration page uses our WeatherBlox Daily Observations layout. Learn more.

Left ArrowRight Arrow

38.89511, -77.03637

Hourly Observations for December 15, 2020

Temp ( °F °C ) Dew Point ( °F °C ) Humidity (%) Winds ( mph kmh ) Pressure ( in mb ) Visibility ( mi km ) Precip ( " mm )
12:52 am 00:52 Mostly Clear 36 2.2 22 -5.6 57 57 NNW 5 7 30.22 1023 10 16 0.00 0.00
1:52 am 01:52 Mostly Clear 35 1.7 23 -5 61 61 NW 5 7 30.23 1024 10 16 0.00 0.00
2:52 am 02:52 Mostly Cloudy 35 1.7 23 -5 61 61 NNW 8 13 30.25 1025 10 16 0.00 0.00
3:52 am 03:52 Clear 34 1.1 22 -5.6 61 61 NNW 9 15 30.27 1025 10 16 0.00 0.00
4:52 am 04:52 Partly Cloudy 33 0.6 20 -6.7 58 58 NNW 9 15 30.28 1025 10 16 0.00 0.00
5:52 am 05:52 Partly Cloudy 33 0.6 19 -7.2 56 56 NW 10 17 30.30 1026 10 16 0.00 0.00
6:52 am 06:52 Mostly Cloudy 33 0.6 19 -7.2 56 56 NNW 9 15 30.33 1027 10 16 0.00 0.00
7:52 am 07:52 Mostly Cloudy 34 1.1 19 -7.2 54 54 NW 7 11 30.34 1028 10 16 0.00 0.00
8:52 am 08:52 Partly Cloudy 36 2.2 19 -7.2 50 50 NNW 12 19 30.36 1028 10 16 0.00 0.00
9:52 am 09:52 Sunny 38 3.3 20 -6.7 48 48 NW 13 20 30.37 1029 10 16 0.00 0.00
10:52 am 10:52 Mostly Sunny 40 4.4 21 -6.1 47 47 N 8 13 30.37 1029 10 16 0.00 0.00
11:52 am 11:52 Mostly Cloudy 40 4.4 20 -6.7 45 45 VRB 3 6 30.35 1028 10 16 0.00 0.00
12:52 pm 12:52 Cloudy 42 5.6 21 -6.1 43 43 NW 6 9 30.34 1027 10 16 0.00 0.00
1:52 pm 13:52 Cloudy 42 5.6 21 -6.1 43 43 NW 9 15 30.34 1028 10 16 0.00 0.00
2:52 pm 14:52 Cloudy 41 5 21 -6.1 45 45 NW 9 15 30.35 1028 10 16 0.00 0.00
3:52 pm 15:52 Mostly Cloudy 40 4.4 20 -6.7 45 45 NW 8 13 30.35 1028 10 16 0.00 0.00
4:52 pm 16:52 Mostly Cloudy 38 3.3 20 -6.7 48 48 NNW 8 13 30.35 1028 10 16 0.00 0.00
5:52 pm 17:52 Mostly Cloudy 37 2.8 22 -5.6 54 54 NNW 6 9 30.35 1028 10 16 0.00 0.00
6:52 pm 18:52 Mostly Cloudy 38 3.3 22 -5.6 52 52 NNE 9 15 30.35 1028 10 16 0.00 0.00
7:52 pm 19:52 Mostly Cloudy 37 2.8 23 -5 57 57 NE 7 11 30.35 1028 10 16 0.00 0.00
8:52 pm 20:52 Mostly Cloudy 36 2.2 23 -5 59 59 NE 9 15 30.33 1027 10 16 0.00 0.00
9:52 pm 21:52 Mostly Cloudy 35 1.7 22 -5.6 59 59 ENE 7 11 30.34 1028 10 16 0.00 0.00
10:52 pm 22:52 Mostly Cloudy 34 1.1 23 -5 64 64 E 5 7 30.36 1028 10 16 0.00 0.00
11:52 pm 23:52 Cloudy 34 1.1 23 -5 64 64 E 5 7 30.36 1028 10 16 0.00 0.00

Powered by AerisWeather